| time (UTC) | temp F | wind direction | speed MPH | gust MPH | rain 1hr in | rain 24hr in | rain mn in | humidity % | barometer mb |
| 20260906182503 | 87 | 153 | 3.0 | 7.0 | 0.00 | 0.00 | 0.00 | 63 | 1015.4 |
| 20260906181503 | 87 | 139 | 4.0 | 11.0 | 0.00 | 0.00 | 0.00 | 63 | 1015.5 |
| 20260906180503 | 87 | 144 | 4.0 | 9.0 | 0.00 | 0.00 | 0.00 | 63 | 1015.5 |
| 20260906175502 | 87 | 126 | 4.0 | 9.0 | 0.00 | 0.00 | 0.00 | 62 | 1015.5 |
| 20260906174503 | 87 | 164 | 4.0 | 11.0 | 0.00 | 0.00 | 0.00 | 65 | 1015.6 |
| 20260906173502 | 86 | 135 | 4.0 | 10.0 | 0.00 | 0.00 | 0.00 | 67 | 1015.7 |
| 20260906172503 | 85 | 138 | 3.0 | 7.0 | 0.00 | 0.00 | 0.00 | 72 | 1015.8 |
| 20260906171503 | 84 | 132 | 4.0 | 8.0 | 0.00 | 0.00 | 0.00 | 75 | 1016.0 |
| 20260906170618 | 83 | 153 | 5.0 | 11.0 | 0.00 | 0.00 | 0.00 | 77 | 1016.1 |
| 20260906165503 | 83 | 146 | 4.0 | 9.0 | 0.00 | 0.00 | 0.00 | 81 | 1016.3 |
| 20260906164617 | 82 | 149 | 3.0 | 9.0 | 0.00 | 0.00 | 0.00 | 81 | 1016.3 |
| 20260906163503 | 82 | 131 | 3.0 | 7.0 | 0.00 | 0.00 | 0.00 | 84 | 1016.3 |
| 20260906162503 | 80 | 140 | 3.0 | 6.0 | 0.00 | 0.00 | 0.00 | 84 | 1016.5 |
| 20260906161618 | 79 | 83 | 1.0 | 3.0 | 0.00 | 0.00 | 0.00 | 84 | 1016.6 |
| 20260906160503 | 79 | 83 | 1.0 | 3.0 | 0.00 | 0.00 | 0.00 | 83 | 1016.8 |
| 20260906155618 | 80 | 79 | 2.0 | 4.0 | 0.00 | 0.00 | 0.00 | 80 | 1016.8 |
| 20260906154618 | 80 | 59 | 1.0 | 3.0 | 0.00 | 0.00 | 0.00 | 80 | 1016.8 |
| 20260906153503 | 80 | 168 | 2.0 | 4.0 | 0.00 | 0.00 | 0.00 | 78 | 1016.7 |
| 20260906152503 | 80 | 146 | 2.0 | 6.0 | 0.00 | 0.00 | 0.00 | 82 | 1016.5 |
| 20260906151503 | 81 | 200 | 1.0 | 4.0 | 0.00 | 0.00 | 0.00 | 80 | 1017.1 |
| 20260906150503 | 81 | 209 | 2.0 | 6.0 | 0.00 | 0.00 | 0.00 | 79 | 1016.9 |
| 20260906145503 | 81 | 165 | 4.0 | 10.0 | 0.00 | 0.00 | 0.00 | 79 | 1016.4 |
| 20260906144503 | 81 | 155 | 4.0 | 9.0 | 0.00 | 0.00 | 0.00 | 80 | 1016.1 |
| 20260906143503 | 81 | 143 | 3.0 | 9.0 | 0.00 | 0.00 | 0.00 | 81 | 1016.0 |
| 20260906142503 | 80 | 128 | 3.0 | 8.0 | 0.00 | 0.00 | 0.00 | 82 | 1016.0 |
| 20260906141502 | 80 | 129 | 3.0 | 6.0 | 0.00 | 0.00 | 0.00 | 82 | 1016.0 |
| 20260906140503 | 80 | 127 | 3.0 | 8.0 | 0.00 | 0.00 | 0.00 | 82 | 1016.2 |
| 20260906135503 | 80 | 133 | 3.0 | 7.0 | 0.00 | 0.00 | 0.00 | 82 | 1016.2 |
| 20260906134503 | 80 | 143 | 4.0 | 10.0 | 0.00 | 0.00 | 0.00 | 82 | 1016.2 |
| 20260906133503 | 80 | 139 | 5.0 | 10.0 | 0.00 | 0.00 | 0.00 | 82 | 1016.2 |
| 20260906132504 | 80 | 144 | 3.0 | 8.0 | 0.00 | 0.00 | 0.00 | 82 | 1016.2 |
| 20260906131503 | 79 | 120 | 2.0 | 6.0 | 0.00 | 0.00 | 0.00 | 83 | 1016.2 |
| 20260906130503 | 79 | 123 | 2.0 | 7.0 | 0.00 | 0.00 | 0.00 | 84 | 1016.1 |
| 20260906125503 | 79 | 133 | 2.0 | 5.0 | 0.00 | 0.00 | 0.00 | 84 | 1016.1 |
| 20260906124502 | 78 | 139 | 3.0 | 9.0 | 0.00 | 0.00 | 0.00 | 85 | 1016.0 |
| 20260906123502 | 78 | 136 | 3.0 | 7.0 | 0.00 | 0.00 | 0.00 | 85 | 1015.8 |
| 20260906122617 | 78 | 133 | 2.0 | 6.0 | 0.00 | 0.00 | 0.00 | 85 | 1015.7 |
| 20260906121502 | 78 | 149 | 2.0 | 4.0 | 0.00 | 0.00 | 0.00 | 85 | 1015.6 |
| 20260906120503 | 78 | 144 | 2.0 | 7.0 | 0.00 | 0.00 | 0.00 | 85 | 1015.4 |
| 20260906115502 | 78 | 153 | 3.0 | 6.0 | 0.00 | 0.00 | 0.00 | 85 | 1015.4 |
| 20260906114502 | 78 | 141 | 3.0 | 8.0 | 0.00 | 0.00 | 0.00 | 85 | 1015.2 |
| 20260906113502 | 78 | 141 | 3.0 | 8.0 | 0.00 | 0.00 | 0.00 | 85 | 1015.1 |
| 20260906112503 | 78 | 129 | 2.0 | 7.0 | 0.00 | 0.00 | 0.00 | 85 | 1015.0 |
| 20260906111618 | 78 | 112 | 1.0 | 4.0 | 0.00 | 0.00 | 0.00 | 84 | 1015.2 |
| 20260906110503 | 78 | 114 | 1.0 | 4.0 | 0.00 | 0.00 | 0.00 | 84 | 1015.2 |
| 20260906105618 | 78 | 150 | 2.0 | 5.0 | 0.00 | 0.00 | 0.00 | 84 | 1015.2 |
| 20260906104503 | 78 | 162 | 1.0 | 4.0 | 0.00 | 0.00 | 0.00 | 84 | 1015.2 |
| 20260906103620 | 78 | 144 | 1.0 | 4.0 | 0.00 | 0.00 | 0.00 | 85 | 1015.0 |
| 20260906102503 | 78 | 114 | 0.0 | 3.0 | 0.00 | 0.00 | 0.00 | 84 | 1014.9 |
| 20260906101503 | 78 | 111 | 1.0 | 4.0 | 0.00 | 0.00 | 0.00 | 84 | 1014.8 |
| 20260906100503 | 77 | 134 | 1.0 | 4.0 | 0.00 | 0.00 | 0.00 | 85 | 1014.9 |
| 20260906095503 | 77 | 81 | 1.0 | 2.0 | 0.00 | 0.00 | 0.00 | 85 | 1014.7 |
| 20260906094504 | 78 | 90 | 1.0 | 6.0 | 0.00 | 0.00 | 0.00 | 85 | 1014.8 |
| 20260906093503 | 78 | 128 | 1.0 | 4.0 | 0.00 | 0.00 | 0.00 | 84 | 1014.9 |
| 20260906092618 | 77 | 131 | 1.0 | 4.0 | 0.00 | 0.00 | 0.00 | 85 | 1014.8 |
| 20260906091503 | 77 | 112 | 1.0 | 3.0 | 0.00 | 0.00 | 0.00 | 84 | 1014.8 |
| 20260906090503 | 78 | 110 | 0.0 | 3.0 | 0.00 | 0.00 | 0.00 | 84 | 1014.9 |
| 20260906085503 | 78 | 96 | 0.0 | 2.0 | 0.00 | 0.00 | 0.00 | 83 | 1015.0 |
| 20260906084502 | 78 | 134 | 0.0 | 2.0 | 0.00 | 0.00 | 0.00 | 82 | 1014.9 |
| 20260906083503 | 79 | 150 | 0.0 | 2.0 | 0.00 | 0.00 | 0.00 | 81 | 1014.8 |
| 20260906082503 | 79 | 160 | 0.0 | 2.0 | 0.00 | 0.00 | 0.00 | 80 | 1014.7 |
| 20260906081503 | 79 | 126 | 1.0 | 5.0 | 0.00 | 0.00 | 0.00 | 79 | 1014.7 |
| 20260906080504 | 80 | 166 | 1.0 | 6.0 | 0.00 | 0.00 | 0.00 | 79 | 1014.7 |
| 20260906075503 | 80 | 149 | 2.0 | 8.0 | 0.00 | 0.00 | 0.00 | 77 | 1014.7 |
| 20260906074503 | 80 | 151 | 2.0 | 8.0 | 0.00 | 0.00 | 0.00 | 76 | 1014.5 |
| 20260906073618 | 80 | 135 | 2.0 | 7.0 | 0.00 | 0.00 | 0.00 | 76 | 1014.5 |
| 20260906072503 | 81 | 149 | 3.0 | 6.0 | 0.00 | 0.00 | 0.00 | 76 | 1014.5 |
| 20260906071504 | 81 | 149 | 3.0 | 8.0 | 0.00 | 0.00 | 0.00 | 76 | 1014.6 |
| 20260906070503 | 81 | 152 | 3.0 | 10.0 | 0.00 | 0.00 | 0.00 | 76 | 1014.7 |
| 20260906065503 | 81 | 140 | 3.0 | 5.0 | 0.00 | 0.00 | 0.00 | 76 | 1014.7 |
| 20260906064502 | 81 | 129 | 3.0 | 8.0 | 0.00 | 0.00 | 0.00 | 76 | 1014.8 |
| 20260906063503 | 81 | 143 | 2.0 | 7.0 | 0.00 | 0.00 | 0.00 | 76 | 1014.9 |
| 20260906062618 | 81 | 141 | 2.0 | 4.0 | 0.00 | 0.00 | 0.00 | 76 | 1014.9 |
| 20260906061506 | 81 | 125 | 1.0 | 6.0 | 0.00 | 0.00 | 0.00 | 77 | 1015.0 |
| 20260906060503 | 81 | 130 | 1.0 | 2.0 | 0.00 | 0.00 | 0.00 | 76 | 1015.0 |
| 20260906055503 | 82 | 118 | 1.0 | 4.0 | 0.00 | 0.00 | 0.00 | 76 | 1014.9 |
| 20260906054503 | 82 | 141 | 1.0 | 8.0 | 0.00 | 0.00 | 0.00 | 74 | 1014.9 |
| 20260906053503 | 82 | 136 | 2.0 | 7.0 | 0.00 | 0.00 | 0.00 | 74 | 1015.0 |
| 20260906052503 | 82 | 99 | 2.0 | 6.0 | 0.00 | 0.00 | 0.00 | 74 | 1014.9 |
| 20260906051502 | 82 | 112 | 1.0 | 6.0 | 0.00 | 0.00 | 0.00 | 73 | 1014.9 |
| 20260906050503 | 83 | 96 | 2.0 | 4.0 | 0.00 | 0.00 | 0.00 | 71 | 1015.0 |
| 20260906045503 | 83 | 98 | 2.0 | 7.0 | 0.00 | 0.00 | 0.00 | 71 | 1015.0 |
| 20260906044502 | 83 | 82 | 2.0 | 7.0 | 0.00 | 0.00 | 0.00 | 71 | 1014.9 |
| 20260906043618 | 83 | 107 | 2.0 | 9.0 | 0.00 | 0.00 | 0.00 | 71 | 1014.9 |
| 20260906042503 | 84 | 98 | 2.0 | 7.0 | 0.00 | 0.00 | 0.00 | 71 | 1014.9 |
| 20260906041503 | 84 | 114 | 1.0 | 6.0 | 0.00 | 0.00 | 0.00 | 71 | 1014.9 |
| 20260906040618 | 84 | 81 | 2.0 | 9.0 | 0.00 | 0.00 | 0.00 | 70 | 1015.0 |
| 20260906035503 | 84 | 94 | 2.0 | 8.0 | 0.00 | 0.00 | 0.00 | 71 | 1015.0 |
| 20260906034503 | 85 | 94 | 2.0 | 6.0 | 0.00 | 0.00 | 0.00 | 70 | 1015.0 |
| 20260906033503 | 85 | 88 | 2.0 | 5.0 | 0.00 | 0.00 | 0.00 | 70 | 1014.9 |
| 20260906032503 | 85 | 95 | 2.0 | 6.0 | 0.00 | 0.00 | 0.00 | 70 | 1014.7 |
| 20260906031503 | 85 | 102 | 2.0 | 8.0 | 0.00 | 0.00 | 0.00 | 70 | 1014.7 |
| 20260906030503 | 85 | 102 | 1.0 | 5.0 | 0.00 | 0.00 | 0.00 | 69 | 1014.5 |
| 20260906025503 | 86 | 87 | 2.0 | 8.0 | 0.00 | 0.00 | 0.00 | 68 | 1014.4 |
| 20260906024503 | 86 | 100 | 2.0 | 6.0 | 0.00 | 0.00 | 0.00 | 68 | 1014.2 |
| 20260906023503 | 86 | 88 | 3.0 | 8.0 | 0.00 | 0.00 | 0.00 | 67 | 1014.0 |
| 20260906022618 | 86 | 93 | 2.0 | 5.0 | 0.00 | 0.00 | 0.00 | 67 | 1014.0 |
| 20260906021617 | 86 | 81 | 2.0 | 8.0 | 0.00 | 0.00 | 0.00 | 67 | 1013.9 |
| 20260906020503 | 87 | 92 | 3.0 | 8.0 | 0.00 | 0.00 | 0.00 | 67 | 1013.7 |
| 20260906015617 | 87 | 81 | 2.0 | 8.0 | 0.00 | 0.00 | 0.00 | 66 | 1013.5 |
| 20260906014503 | 87 | 89 | 2.0 | 5.0 | 0.00 | 0.00 | 0.00 | 65 | 1013.3 |
| 20260906013618 | 87 | 94 | 1.0 | 4.0 | 0.00 | 0.00 | 0.00 | 65 | 1013.2 |
| 20260906012503 | 87 | 99 | 1.0 | 4.0 | 0.00 | 0.00 | 0.00 | 64 | 1013.1 |
| 20260906011503 | 88 | 76 | 1.0 | 4.0 | 0.00 | 0.00 | 0.00 | 64 | 1013.2 |
| 20260906010503 | 88 | 112 | 2.0 | 6.0 | 0.00 | 0.00 | 0.00 | 63 | 1012.9 |
| 20260906005503 | 89 | 99 | 2.0 | 4.0 | 0.00 | 0.00 | 0.00 | 62 | 1012.9 |
| 20260906004503 | 89 | 109 | 2.0 | 7.0 | 0.00 | 0.00 | 0.00 | 62 | 1013.0 |
| 20260906003503 | 90 | 83 | 2.0 | 6.0 | 0.00 | 0.00 | 0.00 | 60 | 1012.9 |
| 20260906002502 | 90 | 102 | 2.0 | 9.0 | 0.00 | 0.00 | 0.00 | 59 | 1012.9 |
| 20260906001503 | 90 | 130 | 3.0 | 7.0 | 0.00 | 0.00 | 0.00 | 59 | 1012.6 |
| 20260906000503 | 91 | 134 | 4.0 | 11.0 | 0.00 | 0.00 | 0.00 | 59 | 1012.5 |
| 20260905235503 | 91 | 132 | 4.0 | 9.0 | 0.00 | 0.00 | 0.00 | 58 | 1012.5 |
| 20260905234503 | 91 | 132 | 3.0 | 11.0 | 0.00 | 0.00 | 0.00 | 58 | 1012.5 |
| 20260905233618 | 91 | 125 | 2.0 | 6.0 | 0.00 | 0.00 | 0.00 | 57 | 1012.6 |
| 20260905232618 | 91 | 102 | 3.0 | 11.0 | 0.00 | 0.00 | 0.00 | 57 | 1012.6 |
| 20260905231503 | 92 | 104 | 3.0 | 7.0 | 0.00 | 0.00 | 0.00 | 56 | 1012.6 |
| 20260905230503 | 92 | 136 | 3.0 | 8.0 | 0.00 | 0.00 | 0.00 | 56 | 1012.6 |
| 20260905225502 | 92 | 103 | 3.0 | 8.0 | 0.00 | 0.00 | 0.00 | 56 | 1012.7 |
| 20260905224504 | 92 | 140 | 6.0 | 11.0 | 0.00 | 0.00 | 0.00 | 55 | 1012.6 |
| 20260905223502 | 92 | 131 | 5.0 | 10.0 | 0.00 | 0.00 | 0.00 | 54 | 1012.5 |
| 20260905222503 | 92 | 156 | 5.0 | 14.0 | 0.00 | 0.00 | 0.00 | 54 | 1012.3 |
| 20260905221503 | 91 | 158 | 7.0 | 15.0 | 0.00 | 0.00 | 0.00 | 54 | 1012.3 |
| 20260905220503 | 91 | 149 | 5.0 | 10.0 | 0.00 | 0.00 | 0.00 | 54 | 1012.3 |
| 20260905215503 | 91 | 144 | 4.0 | 11.0 | 0.00 | 0.00 | 0.00 | 53 | 1012.5 |
| 20260905214618 | 92 | 133 | 4.0 | 11.0 | 0.00 | 0.00 | 0.00 | 52 | 1012.6 |
| 20260905213502 | 91 | 142 | 4.0 | 12.0 | 0.00 | 0.00 | 0.00 | 53 | 1012.5 |
| 20260905212618 | 91 | 135 | 5.0 | 14.0 | 0.00 | 0.00 | 0.00 | 52 | 1012.7 |
| 20260905211503 | 91 | 134 | 4.0 | 15.0 | 0.00 | 0.00 | 0.00 | 53 | 1012.9 |
| 20260905210503 | 91 | 100 | 5.0 | 10.0 | 0.00 | 0.00 | 0.00 | 53 | 1013.2 |
| 20260905205503 | 91 | 106 | 4.0 | 11.0 | 0.00 | 0.00 | 0.00 | 53 | 1013.3 |
| 20260905204503 | 91 | 117 | 5.0 | 12.0 | 0.00 | 0.00 | 0.00 | 51 | 1013.3 |
| 20260905203503 | 90 | 115 | 5.0 | 11.0 | 0.00 | 0.00 | 0.00 | 51 | 1013.6 |
| 20260905202502 | 91 | 132 | 5.0 | 11.0 | 0.00 | 0.00 | 0.00 | 52 | 1013.9 |
| 20260905201618 | 91 | 94 | 4.0 | 12.0 | 0.00 | 0.00 | 0.00 | 53 | 1014.1 |
| 20260905200503 | 91 | 113 | 4.0 | 13.0 | 0.00 | 0.00 | 0.00 | 53 | 1014.3 |
| 20260905195503 | 90 | 107 | 5.0 | 11.0 | 0.00 | 0.00 | 0.00 | 54 | 1014.6 |
| 20260905194618 | 90 | 90 | 5.0 | 12.0 | 0.00 | 0.00 | 0.00 | 54 | 1014.8 |
| 20260905193502 | 90 | 105 | 4.0 | 14.0 | 0.00 | 0.00 | 0.00 | 54 | 1014.9 |
| 20260905192618 | 90 | 90 | 4.0 | 12.0 | 0.00 | 0.00 | 0.00 | 58 | 1014.9 |
| 20260905191502 | 90 | 99 | 5.0 | 14.0 | 0.00 | 0.00 | 0.00 | 56 | 1015.0 |
| 20260905190502 | 89 | 67 | 5.0 | 14.0 | 0.00 | 0.00 | 0.00 | 57 | 1015.3 |
| 20260905185621 | 89 | 91 | 6.0 | 15.0 | 0.00 | 0.00 | 0.00 | 56 | 1015.6 |
| 20260905184618 | 89 | 71 | 6.0 | 14.0 | 0.00 | 0.00 | 0.00 | 56 | 1015.8 |
| 20260905183503 | 88 | 67 | 7.0 | 17.0 | 0.00 | 0.00 | 0.00 | 59 | 1016.2 |